sat.trackr.live / text

‹ back to catalog

KUIPER-00179

NORAD 67136 · 2025-301D

PAYLOAD ACTIVE UNKNOWN

§ Identity

Operator
Country
US
Launch date
2025-12-16
Launch site
AFETR
Launch vehicle
Mass (kg)
RCS (m²)

External: N2YO · Heavens-Above · Gunter

§ Orbital elements

Epoch: 2026-09-20T05:54:33.249888Z

Period
97.30 min
Inclination
51.8990°
Eccentricity
0.0000434
Mean motion
14.79935525 rev/d
Perigee alt
629.2 km
Apogee alt
629.8 km
Semi-major
7,007.7 km
B*
2.4748e-4
RAAN
285.2476°
Arg perigee
58.3647°
Mean anomaly
301.7358°
Rev number
4,272

§ Raw data

KUIPER-001791 67136U 25301D   26263.24621817  .00001666  00000+0  24748-3 0  99902 67136  51.8990 285.2476 0000434  58.3647 301.7358 14.79935525 42727

JSON: /api/v1/satellites/67136 · /tle

For live sub-satellite position, see the globe view (requires WebGL).

§ Visibility from observer

Set your observer location to see the next 7 days of passes ≥ 10°. The values pass through the URL so the page stays shareable.

No JS? Fill the form by hand. The geolocation button needs JavaScript.